Kuantan, Malaysia

6:37 PM +08 on December 13, 2019 (GMT +0800)
Kuantan

Weather History for WMKD - November, 2019

Change the Weather History Date:

Tuesday, November 19, 2019

  Actual Average Record
Temperature  
Mean Temperature 80 °F -  
Max Temperature 86 °F 85 °F - ()
Min Temperature 74 °F 72 °F - ()
Cooling Degree Days 15    
Growing Degree Days 30 (Base 50)    
Moisture  
Dew Point 74 °F    
Average Humidity 88    
Maximum Humidity 94    
Minimum Humidity 74    
Precipitation  
Precipitation 0.24 in 0.63 in - ()
Sea Level Pressure  
Sea Level Pressure 29.83 in    
Wind  
Wind Speed 2 mph ()    
Max Wind Speed 10 mph    
Max Gust Speed -    
Visibility 5.8 miles    
Events Rain , Thunderstorm    
T = Trace of Precipitation, MM = Missing Value Source: Averaged Metar Reports

Daily Weather History Graph

Daily Weather History Graph

Search for Another Location

Airport or City:

Astronomy

Nov. 19, 2019 Rise Set
Actual Time 6:54 AM +08 6:50 PM +08
Civil Twilight 6:32 AM +08 7:12 PM +08
Nautical Twilight 6:06 AM +08 7:38 PM +08
Astronomical Twilight 5:41 AM +08 8:03 PM +08
Moon 12:06 AM +08 (11/19) 12:44 PM +08 (11/19)
Length of Visible Light 12h 40m
Length of Day
11h 56m
Waning Gibbous, 58% of the Moon is Illuminated
Nov 19
Waning Gibbous
Nov 20
Last Quarter
Nov 26
New
Dec 4
First Quarter
Dec 12
Full

Hourly Weather History & Observations

Time (+08) Temp. Heat Index Dew Point Humidity Pressure Visibility Wind Dir Wind Speed Gust Speed Precip Events Conditions
12:00 AM 77.0 °F - 73.4 °F 89% 29.86 in 5.6 mi Variable 1.2 mph - N/A   Partly Cloudy
2:00 AM 76 °F - 74 °F 91% 29.85 in 6 mi Calm Calm - -   Mist
2:00 AM 77.0 °F - 73.4 °F 89% 29.83 in 5.6 mi Calm Calm - N/A   Partly Cloudy
3:00 AM 75.2 °F - 73.4 °F 94% 29.83 in 5.6 mi Calm Calm - N/A   Partly Cloudy
4:00 AM 75.2 °F - 73.4 °F 94% 29.80 in 5.6 mi Variable 1.2 mph - N/A   Partly Cloudy
5:00 AM 75 °F - 73 °F 93% 29.81 in 6 mi NNE 3.5 mph - -   Mist
5:00 AM 75.2 °F - 73.4 °F 94% 29.80 in 5.6 mi Variable 3.5 mph - N/A   Partly Cloudy
7:00 AM 75.2 °F - 73.4 °F 94% 29.83 in 5.6 mi Variable 3.5 mph - N/A   Partly Cloudy
8:00 AM 76 °F - 73 °F 89% 29.86 in 8 mi North 2.3 mph - -   Haze
8:00 AM 75.2 °F - 73.4 °F 94% 29.86 in 6.2 mi Variable 2.3 mph - N/A   Partly Cloudy
9:00 AM 77.0 °F - 75.2 °F 94% 29.86 in 6.2 mi Variable 1.2 mph - N/A   Partly Cloudy
11:00 AM 82 °F - 76 °F 77% 29.88 in 9 mi West 3.5 mph - - Rain Light Rain
11:00 AM 82.4 °F 89.5 °F 75.2 °F 79% 29.86 in 6.2 mi Variable 3.5 mph - N/A   Partly Cloudy
12:00 PM 84.2 °F 94.1 °F 77.0 °F 79% 29.86 in 6.2 mi Variable 4.6 mph - N/A   Partly Cloudy
1:00 PM 86.0 °F 96.9 °F 77.0 °F 74% 29.83 in 6.2 mi Calm Calm - N/A   Scattered Clouds
2:00 PM 78 °F - 75 °F 88% 29.82 in 2 mi NNW 10.4 mph - - Rain , Thunderstorm Thunderstorms and Rain
2:00 PM 78.8 °F - 75.2 °F 89% 29.80 in 2.5 mi NNW 10.4 mph - N/A Rain , Thunderstorm Light Thunderstorms and Rain
3:00 PM 82.4 °F 90.9 °F 77.0 °F 84% 29.77 in 6.2 mi NNW 3.5 mph - N/A Thunderstorm Thunderstorm
5:00 PM 78.8 °F - 75.2 °F 89% 29.77 in 2.5 mi NNW 5.8 mph - N/A Rain , Thunderstorm Light Thunderstorms and Rain
6:00 PM 78.8 °F - 73.4 °F 83% 29.80 in 5.6 mi NNW 9.2 mph - N/A Rain , Thunderstorm Light Thunderstorms and Rain
8:00 PM 76 °F - 74 °F 91% 29.82 in 7 mi NNE 1.2 mph - -   Haze
8:00 PM 77.0 °F - 73.4 °F 89% 29.80 in 6.2 mi Variable 1.2 mph - N/A   Partly Cloudy
9:00 PM 77.0 °F - 73.4 °F 89% 29.83 in 6.2 mi Variable 3.5 mph - N/A   Partly Cloudy
10:00 PM 77.0 °F - 73.4 °F 89% 29.86 in 6.2 mi North 3.5 mph - N/A   Partly Cloudy
11:00 PM 77.0 °F - 73.4 °F 89% 29.86 in 6.2 mi North 3.5 mph - N/A   Partly Cloudy